Time,TemperatureF,DewpointF,PressureIn,WindDirection,WindDirectionDegrees,WindSpeedMPH,WindSpeedGustMPH,Humidity,HourlyPrecipIn,Conditions,Clouds,dailyrainin,SoftwareType,DateUTC
2013-03-26 00:02:00,61.0,30.0,29.96,SE,124,4.0,7.0,31,0.00,,,0.00,,2013-03-26 07:02:00,
2013-03-26 00:22:00,61.0,29.0,29.96,SE,124,3.0,4.0,30,0.00,,,0.00,,2013-03-26 07:22:00,
2013-03-26 00:32:00,61.0,32.0,29.96,SE,131,4.0,6.0,34,0.00,,,0.00,,2013-03-26 07:32:00,
2013-03-26 00:52:00,60.0,32.0,29.96,ESE,109,4.0,5.0,35,0.00,,,0.00,,2013-03-26 07:52:00,
2013-03-26 01:01:00,59.0,32.0,29.96,ESE,121,7.0,9.0,36,0.00,,,0.00,,2013-03-26 08:01:00,
2013-03-26 01:22:00,58.0,31.0,29.95,East,101,7.0,9.0,36,0.00,,,0.00,,2013-03-26 08:22:00,
2013-03-26 01:31:00,57.0,35.0,29.95,East,96,7.0,9.0,44,0.00,,,0.00,,2013-03-26 08:31:00,
2013-03-26 01:52:00,57.0,34.0,29.95,ESE,112,7.0,8.0,41,0.00,,,0.00,,2013-03-26 08:52:00,
2013-03-26 02:01:00,57.0,38.0,29.95,SE,135,6.0,8.0,49,0.00,,,0.00,,2013-03-26 09:01:00,
2013-03-26 02:22:00,55.0,37.0,29.95,SE,130,6.0,8.0,50,0.00,,,0.00,,2013-03-26 09:22:00,
2013-03-26 02:32:00,55.0,39.0,29.95,SE,126,4.0,7.0,55,0.00,,,0.00,,2013-03-26 09:32:00,
2013-03-26 02:42:00,55.0,39.0,29.95,SE,126,4.0,7.0,55,0.00,,,0.00,,2013-03-26 09:42:00,
2013-03-26 02:52:00,54.0,41.0,29.94,ESE,115,5.0,8.0,62,0.00,,,0.00,,2013-03-26 09:52:00,
2013-03-26 03:02:00,55.0,40.0,29.94,East,99,6.0,8.0,56,0.00,,,0.00,,2013-03-26 10:02:00,
2013-03-26 03:12:00,55.0,40.0,29.94,East,99,6.0,8.0,56,0.00,,,0.00,,2013-03-26 10:12:00,
2013-03-26 03:22:00,56.0,36.0,29.94,East,98,5.0,6.0,46,0.00,,,0.00,,2013-03-26 10:22:00,
2013-03-26 03:32:00,57.0,36.0,29.93,East,98,7.0,8.0,45,0.00,,,0.00,,2013-03-26 10:32:00,
2013-03-26 03:52:00,57.0,32.0,29.93,East,96,9.0,11.0,39,0.00,,,0.00,,2013-03-26 10:52:00,
2013-03-26 04:02:00,57.0,32.0,29.93,East,96,7.0,13.0,39,0.00,,,0.00,,2013-03-26 11:02:00,
2013-03-26 04:21:00,57.0,33.0,29.93,East,97,7.0,9.0,40,0.00,,,0.00,,2013-03-26 11:21:00,
2013-03-26 04:32:00,56.0,32.0,29.93,East,94,4.0,6.0,40,0.00,,,0.00,,2013-03-26 11:32:00,
2013-03-26 04:52:00,56.0,33.0,29.93,East,95,3.0,6.0,42,0.00,,,0.00,,2013-03-26 11:52:00,
2013-03-26 05:12:00,56.0,33.0,29.93,East,95,0.0,2.0,42,0.00,,,0.00,,2013-03-26 12:12:00,
2013-03-26 05:21:00,56.0,33.0,29.93,East,94,3.0,5.0,42,0.00,,,0.00,,2013-03-26 12:21:00,
2013-03-26 05:31:00,53.0,41.0,29.93,East,94,2.0,5.0,64,0.00,,,0.00,,2013-03-26 12:31:00,
2013-03-26 05:42:00,53.0,41.0,29.93,East,94,2.0,5.0,64,0.00,,,0.00,,2013-03-26 12:42:00,
2013-03-26 05:52:00,53.0,34.0,29.93,East,94,0.0,3.0,48,0.00,,,0.00,,2013-03-26 12:52:00,
2013-03-26 06:02:00,55.0,32.0,29.93,East,90,4.0,5.0,41,0.00,,,0.00,,2013-03-26 13:02:00,
2013-03-26 06:22:00,56.0,33.0,29.93,East,91,0.0,3.0,41,0.00,,,0.00,,2013-03-26 13:22:00,
2013-03-26 06:32:00,53.0,40.0,29.93,West,270,6.0,8.0,61,0.00,,,0.00,,2013-03-26 13:32:00,
2013-03-26 06:42:00,53.0,40.0,29.93,West,270,6.0,8.0,61,0.00,,,0.00,,2013-03-26 13:42:00,
2013-03-26 06:52:00,53.0,39.0,29.93,West,271,2.0,6.0,58,0.00,,,0.00,,2013-03-26 13:52:00,
2013-03-26 07:01:00,53.0,39.0,29.94,West,275,4.0,6.0,59,0.00,,,0.00,,2013-03-26 14:01:00,
2013-03-26 07:11:00,53.0,39.0,29.94,West,275,4.0,6.0,59,0.00,,,0.00,,2013-03-26 14:11:00,
2013-03-26 07:22:00,52.0,40.0,29.95,West,275,4.0,6.0,64,0.00,,,0.00,,2013-03-26 14:22:00,
2013-03-26 07:32:00,52.0,40.0,29.95,West,275,0.0,5.0,63,0.00,,,0.00,,2013-03-26 14:32:00,
2013-03-26 07:42:00,52.0,40.0,29.95,West,275,0.0,5.0,63,0.00,,,0.00,,2013-03-26 14:42:00,
2013-03-26 07:52:00,52.0,39.0,29.95,ESE,115,4.0,5.0,60,0.00,,,0.00,,2013-03-26 14:52:00,
2013-03-26 08:02:00,53.0,39.0,29.96,ESE,116,4.0,5.0,60,0.00,,,0.00,,2013-03-26 15:02:00,
2013-03-26 08:12:00,53.0,39.0,29.96,ESE,116,4.0,5.0,60,0.00,,,0.00,,2013-03-26 15:12:00,
2013-03-26 08:21:00,54.0,39.0,29.96,ESE,102,0.0,3.0,56,0.00,,,0.00,,2013-03-26 15:21:00,
2013-03-26 08:32:00,55.0,37.0,29.96,ESE,102,2.0,3.0,51,0.00,,,0.00,,2013-03-26 15:32:00,
2013-03-26 08:52:00,56.0,40.0,29.96,East,86,0.0,3.0,55,0.00,,,0.00,,2013-03-26 15:52:00,
2013-03-26 09:02:00,52.0,40.0,29.97,East,86,0.0,3.0,63,0.00,,,0.00,,2013-03-26 16:02:00,
2013-03-26 09:12:00,52.0,40.0,29.97,East,86,0.0,3.0,63,0.00,,,0.00,,2013-03-26 16:12:00,
2013-03-26 09:22:00,53.0,41.0,29.97,East,81,0.0,1.0,63,0.00,,,0.00,,2013-03-26 16:22:00,
2013-03-26 09:32:00,57.0,47.0,29.98,SE,124,2.0,4.0,68,0.00,,,0.00,,2013-03-26 16:32:00,
2013-03-26 09:53:00,55.0,43.0,29.98,ESE,105,2.0,4.0,63,0.00,,,0.00,,2013-03-26 16:53:00,
2013-03-26 10:02:00,54.0,46.0,29.98,West,273,2.0,5.0,73,0.00,,,0.00,,2013-03-26 17:02:00,
2013-03-26 10:12:00,54.0,46.0,29.98,West,273,2.0,5.0,73,0.00,,,0.00,,2013-03-26 17:12:00,
2013-03-26 10:22:00,54.0,47.0,29.98,WNW,286,1.0,6.0,76,0.00,,,0.00,,2013-03-26 17:22:00,
2013-03-26 10:42:00,57.0,50.0,29.98,East,84,0.0,8.0,76,0.00,,,0.00,,2013-03-26 17:42:00,
2013-03-26 10:53:00,58.0,49.0,29.99,NW,315,1.0,5.0,72,0.00,,,0.00,,2013-03-26 17:53:00,
2013-03-26 11:01:00,58.0,50.0,29.99,ESE,121,0.0,7.0,74,0.00,,,0.00,,2013-03-26 18:01:00,
2013-03-26 11:12:00,58.0,50.0,29.99,ESE,121,0.0,7.0,74,0.00,,,0.00,,2013-03-26 18:12:00,
2013-03-26 11:22:00,61.0,51.0,29.99,SE,138,0.0,4.0,69,0.00,,,0.00,,2013-03-26 18:22:00,
2013-03-26 11:33:00,61.0,50.0,29.99,SSW,195,0.0,4.0,67,0.00,,,0.00,,2013-03-26 18:33:00,
2013-03-26 11:42:00,61.0,50.0,29.99,SSW,195,0.0,4.0,67,0.00,,,0.00,,2013-03-26 18:42:00,
2013-03-26 11:52:00,58.0,49.0,29.98,WNW,299,3.0,7.0,73,0.00,,,0.00,,2013-03-26 18:52:00,
2013-03-26 12:02:00,57.0,50.0,29.99,WNW,301,6.0,10.0,77,0.00,,,0.00,,2013-03-26 19:02:00,
2013-03-26 12:11:00,57.0,50.0,29.99,WNW,301,6.0,10.0,77,0.00,,,0.00,,2013-03-26 19:11:00,
2013-03-26 12:22:00,57.0,50.0,29.98,WNW,301,1.0,7.0,77,0.00,,,0.00,,2013-03-26 19:22:00,
2013-03-26 12:32:00,57.0,50.0,29.98,WNW,301,1.0,7.0,77,0.00,,,0.00,,2013-03-26 19:32:00,
2013-03-26 12:42:00,57.0,50.0,29.98,WNW,301,1.0,7.0,77,0.00,,,0.00,,2013-03-26 19:42:00,
2013-03-26 12:53:00,59.0,51.0,29.98,NNW,344,0.0,3.0,74,0.00,,,0.00,,2013-03-26 19:53:00,
2013-03-26 13:01:00,62.0,51.0,29.98,South,169,0.0,6.0,68,0.00,,,0.00,,2013-03-26 20:01:00,
2013-03-26 13:22:00,60.0,50.0,29.98,WNW,288,1.0,7.0,70,0.00,,,0.00,,2013-03-26 20:22:00,
2013-03-26 13:32:00,62.0,52.0,29.97,South,177,1.0,6.0,69,0.00,,,0.00,,2013-03-26 20:32:00,
2013-03-26 13:42:00,62.0,52.0,29.97,South,177,1.0,6.0,69,0.00,,,0.00,,2013-03-26 20:42:00,
2013-03-26 13:52:00,63.0,51.0,29.98,SSW,193,2.0,6.0,64,0.00,,,0.00,,2013-03-26 20:52:00,
2013-03-26 14:01:00,63.0,51.0,29.97,SSE,149,0.0,6.0,65,0.00,,,0.00,,2013-03-26 21:01:00,
2013-03-26 14:12:00,63.0,51.0,29.97,SSE,149,0.0,6.0,65,0.00,,,0.00,,2013-03-26 21:12:00,
2013-03-26 14:22:00,63.0,51.0,29.97,SSE,149,0.0,6.0,65,0.00,,,0.00,,2013-03-26 21:22:00,
2013-03-26 14:32:00,63.0,51.0,29.97,SSE,149,0.0,6.0,65,0.00,,,0.00,,2013-03-26 21:32:00,
2013-03-26 14:42:00,63.0,51.0,29.97,SSE,149,0.0,6.0,65,0.00,,,0.00,,2013-03-26 21:42:00,
2013-03-26 15:22:00,57.0,50.0,29.96,NW,310,6.0,11.0,77,0.00,,,0.00,,2013-03-26 22:22:00,
2013-03-26 15:32:00,57.0,50.0,29.96,NW,310,6.0,11.0,77,0.00,,,0.00,,2013-03-26 22:32:00,
2013-03-26 15:41:00,57.0,50.0,29.96,NW,310,6.0,11.0,77,0.00,,,0.00,,2013-03-26 22:41:00,
2013-03-26 16:22:00,57.0,50.0,29.95,WNW,294,5.0,10.0,77,0.00,,,0.00,,2013-03-26 23:22:00,
2013-03-26 16:32:00,58.0,49.0,29.94,WNW,285,6.0,9.0,73,0.00,,,0.00,,2013-03-26 23:32:00,
2013-03-26 16:42:00,58.0,49.0,29.94,WNW,285,6.0,9.0,73,0.00,,,0.00,,2013-03-26 23:42:00,
2013-03-26 16:52:00,59.0,49.0,29.94,WNW,294,6.0,9.0,70,0.00,,,0.00,,2013-03-26 23:52:00,
2013-03-26 17:01:00,57.0,49.0,29.94,WNW,284,8.0,12.0,74,0.00,,,0.00,,2013-03-27 00:01:00,
2013-03-26 17:11:00,57.0,49.0,29.94,WNW,284,8.0,12.0,74,0.00,,,0.00,,2013-03-27 00:11:00,
2013-03-26 17:22:00,57.0,49.0,29.93,West,275,7.0,11.0,75,0.00,,,0.00,,2013-03-27 00:22:00,
2013-03-26 17:32:00,55.0,48.0,29.93,West,268,8.0,12.0,78,0.00,,,0.00,,2013-03-27 00:32:00,
2013-03-26 17:42:00,55.0,48.0,29.93,West,268,8.0,12.0,78,0.00,,,0.00,,2013-03-27 00:42:00,
2013-03-26 17:52:00,55.0,48.0,29.93,West,279,10.0,14.0,78,0.00,,,0.00,,2013-03-27 00:52:00,
2013-03-26 18:02:00,54.0,48.0,29.93,West,275,9.0,12.0,81,0.00,,,0.00,,2013-03-27 01:02:00,
2013-03-26 18:11:00,54.0,48.0,29.93,West,275,9.0,12.0,81,0.00,,,0.00,,2013-03-27 01:11:00,
2013-03-26 18:22:00,53.0,48.0,29.93,WNW,283,9.0,12.0,82,0.00,,,0.00,,2013-03-27 01:22:00,
2013-03-26 18:32:00,53.0,47.0,29.93,West,281,9.0,12.0,81,0.00,,,0.00,,2013-03-27 01:32:00,
2013-03-26 18:42:00,53.0,47.0,29.93,West,281,9.0,12.0,81,0.00,,,0.00,,2013-03-27 01:42:00,
2013-03-26 18:52:00,53.0,47.0,29.93,West,269,9.0,12.0,81,0.00,,,0.00,,2013-03-27 01:52:00,
2013-03-26 19:02:00,51.0,45.0,29.93,West,269,10.0,13.0,81,0.00,,,0.00,,2013-03-27 02:02:00,
2013-03-26 19:12:00,51.0,45.0,29.93,West,269,10.0,13.0,81,0.00,,,0.00,,2013-03-27 02:12:00,
2013-03-26 19:21:00,50.0,45.0,29.93,West,271,8.0,10.0,83,0.00,,,0.00,,2013-03-27 02:21:00,
2013-03-26 19:31:00,50.0,46.0,29.93,West,268,8.0,10.0,85,0.00,,,0.00,,2013-03-27 02:31:00,
2013-03-26 19:42:00,50.0,46.0,29.93,West,268,8.0,10.0,85,0.00,,,0.00,,2013-03-27 02:42:00,
2013-03-26 19:52:00,50.0,45.0,29.93,West,272,11.0,13.0,82,0.00,,,0.00,,2013-03-27 02:52:00,
2013-03-26 20:02:00,51.0,44.0,29.94,WSW,257,11.0,13.0,76,0.00,,,0.00,,2013-03-27 03:02:00,
2013-03-26 20:11:00,51.0,44.0,29.94,WSW,257,11.0,13.0,76,0.00,,,0.00,,2013-03-27 03:11:00,
2013-03-26 20:22:00,50.0,43.0,29.94,WSW,258,9.0,12.0,77,0.00,,,0.00,,2013-03-27 03:22:00,
2013-03-26 20:32:00,52.0,43.0,29.94,WNW,296,7.0,11.0,72,0.00,,,0.00,,2013-03-27 03:32:00,
2013-03-26 20:42:00,52.0,43.0,29.94,WNW,296,7.0,11.0,72,0.00,,,0.00,,2013-03-27 03:42:00,
2013-03-26 20:53:00,53.0,43.0,29.95,NW,310,3.0,8.0,69,0.00,,,0.00,,2013-03-27 03:53:00,
2013-03-26 21:02:00,53.0,43.0,29.95,West,279,3.0,7.0,68,0.00,,,0.00,,2013-03-27 04:02:00,
2013-03-26 21:12:00,53.0,43.0,29.95,West,279,3.0,7.0,68,0.00,,,0.00,,2013-03-27 04:12:00,
2013-03-26 21:22:00,53.0,43.0,29.95,West,281,0.0,9.0,68,0.00,,,0.00,,2013-03-27 04:22:00,
2013-03-26 21:32:00,54.0,43.0,29.96,West,274,4.0,5.0,67,0.00,,,0.00,,2013-03-27 04:32:00,
2013-03-26 21:42:00,54.0,43.0,29.96,West,274,4.0,5.0,67,0.00,,,0.00,,2013-03-27 04:42:00,
2013-03-26 21:52:00,53.0,43.0,29.96,West,273,3.0,4.0,68,0.00,,,0.00,,2013-03-27 04:52:00,
2013-03-26 22:02:00,53.0,43.0,29.96,WSW,257,6.0,7.0,68,0.00,,,0.00,,2013-03-27 05:02:00,
2013-03-26 22:12:00,53.0,43.0,29.96,WSW,257,6.0,7.0,68,0.00,,,0.00,,2013-03-27 05:12:00,
2013-03-26 22:22:00,52.0,43.0,29.97,West,268,5.0,9.0,72,0.00,,,0.00,,2013-03-27 05:22:00,
2013-03-26 22:32:00,52.0,44.0,29.97,NW,306,3.0,8.0,73,0.00,,,0.00,,2013-03-27 05:32:00,
2013-03-26 22:42:00,52.0,44.0,29.97,NW,306,3.0,8.0,73,0.00,,,0.00,,2013-03-27 05:42:00,
2013-03-26 22:52:00,53.0,45.0,29.97,WNW,296,1.0,5.0,74,0.00,,,0.00,,2013-03-27 05:52:00,
2013-03-26 23:01:00,52.0,44.0,29.97,NW,324,0.0,0.0,73,0.00,,,0.00,,2013-03-27 06:01:00,
2013-03-26 23:11:00,52.0,44.0,29.97,NW,324,0.0,0.0,73,0.00,,,0.00,,2013-03-27 06:11:00,
2013-03-26 23:22:00,52.0,43.0,29.97,ENE,57,3.0,5.0,71,0.00,,,0.00,,2013-03-27 06:22:00,
2013-03-26 23:32:00,52.0,44.0,29.98,ENE,76,4.0,5.0,73,0.00,,,0.00,,2013-03-27 06:32:00,
2013-03-26 23:42:00,52.0,44.0,29.98,ENE,76,4.0,5.0,73,0.00,,,0.00,,2013-03-27 06:42:00,
2013-03-26 23:52:00,52.0,44.0,29.98,ENE,78,4.0,7.0,73,0.00,,,0.00,,2013-03-27 06:52:00,